GEFSCGP_con_prob3kmehi_174.txt.gz
EHI
0 0 0 0 0 0 0 0 0 0 0 1 4 7 10 14 21 29 33 37 42 46 51 52 50 46 44 42 35 28 22 21 21 19 15 10 5 3 2 1 0 1 1 1
0 0 0 0 0 0 0 0 0 0 0 1 3 7 9 11 17 23 29 35 40 45 49 52 51 48 44 40 34 27 23 22 21 18 13 8 4 2 1 1 0 0 0 0
0 0 0 0 0 0 0 0 0 0 0 0 2 4 6 7 11 18 24 30 34 39 44 49 51 49 45 41 35 28 24 24 22 18 13 8 5 2 1 0 0 0 0 0
0 0 0 0 0 0 0 0 0 0 0 0 0 1 2 4 8 14 21 25 29 35 40 45 49 49 45 42 37 31 28 28 24 18 14 10 6 3 1 0 0 0 0 0
0 0 0 0 0 0 0 0 0 0 0 0 0 0 1 3 6 11 16 20 24 30 36 42 46 46 44 42 39 34 31 29 25 18 13 10 6 3 1 1 0 0 0 0
0 0 0 0 0 0 0 0 0 0 0 0 0 0 0 1 3 7 11 14 17 24 32 37 41 42 42 42 40 35 30 27 23 16 10 7 5 3 2 2 1 1 0 0
0 0 0 0 0 0 0 0 0 0 0 0 0 0 0 0 1 4 8 11 13 18 27 34 38 40 41 41 39 34 28 24 21 15 10 7 5 4 4 3 3 2 1 0
0 0 0 0 0 0 0 0 0 0 0 0 0 0 0 0 1 4 8 11 13 17 26 34 37 37 38 38 36 31 27 24 20 16 11 7 6 4 3 3 3 2 1 0
0 0 0 0 0 0 0 0 0 0 0 0 0 0 0 0 2 6 9 11 12 16 24 32 34 33 33 33 31 28 25 23 20 17 13 9 7 5 3 2 3 2 1 1
0 0 0 0 0 0 0 0 0 0 0 0 0 0 0 1 3 5 8 9 10 14 23 29 30 28 28 28 27 25 23 22 20 18 15 11 7 5 3 2 1 2 2 2
0 0 0 0 0 0 0 0 0 0 0 0 0 0 0 0 1 3 5 6 8 13 20 24 23 22 24 25 26 24 22 20 20 18 16 12 8 5 3 2 1 1 2 2
0 0 0 0 0 0 0 0 0 0 0 0 0 0 0 0 0 1 3 5 8 12 15 16 16 17 20 22 23 21 19 18 18 17 15 12 8 6 4 3 1 0 1 1
0 0 0 0 0 0 0 0 0 0 0 0 0 0 0 0 0 1 2 4 9 13 13 11 11 14 18 19 18 17 16 16 16 14 13 11 8 6 5 3 1 0 0 0
0 0 0 0 0 0 0 0 0 0 0 0 0 0 0 0 0 1 1 4 9 14 15 12 11 13 17 18 15 13 13 13 13 13 12 10 8 6 4 3 2 0 0 0
0 0 0 0 0 0 0 0 0 0 0 0 0 0 0 0 0 1 2 4 8 13 15 14 13 13 16 17 14 11 11 11 11 13 13 11 8 6 3 2 1 0 0 0
0 0 0 0 0 0 0 0 0 0 0 0 0 0 0 0 0 0 2 4 7 10 12 13 13 14 15 16 14 11 10 10 11 13 13 12 9 5 2 1 0 0 0 0
0 0 0 0 0 0 0 0 0 0 0 0 0 0 0 0 0 0 1 3 5 7 9 12 13 15 16 15 13 12 11 10 11 13 13 11 8 4 2 0 0 0 0 0
0 0 0 0 0 0 0 0 1 1 0 0 1 1 0 0 0 0 1 2 3 5 8 12 14 15 15 14 12 13 12 11 11 11 11 9 6 3 2 1 0 0 0 0
0 0 0 0 0 0 0 0 1 1 0 1 2 1 0 0 0 0 1 2 2 3 7 11 13 13 14 12 11 12 12 10 9 9 7 5 4 2 1 1 0 0 1 1
0 0 0 0 0 0 0 0 1 1 0 1 1 1 0 0 0 0 1 3 4 4 5 9 11 11 11 11 10 10 9 8 7 5 3 2 2 2 1 1 0 0 1 2
0 0 0 0 0 0 0 0 0 0 0 0 0 0 0 0 0 0 1 3 6 8 8 10 11 10 9 9 10 9 7 5 4 2 1 0 1 2 1 0 0 0 1 1
0 0 0 0 0 0 0 0 0 0 0 0 0 0 1 1 1 1 1 3 6 10 12 13 13 11 9 9 9 8 6 4 3 2 1 0 0 1 1 0 0 1 1 1
0 0 0 0 0 0 0 0 0 0 0 0 1 2 3 3 3 2 2 2 5 10 13 14 14 13 11 9 9 9 7 5 5 5 3 2 0 0 0 1 2 3 3 3
0 0 0 0 0 1 1 1 0 0 1 2 2 4 5 5 4 3 3 3 6 9 11 13 14 14 12 10 9 9 8 8 7 8 7 5 2 1 1 1 3 4 4 4
0 0 0 0 0 1 2 1 0 0 2 3 4 5 5 4 3 3 3 4 5 7 8 9 11 12 11 10 9 8 7 7 7 9 9 7 5 4 2 2 3 2 2 3
0 0 0 0 0 1 1 0 0 0 2 4 5 5 4 4 3 3 4 4 4 5 5 6 8 9 9 10 10 8 6 6 7 8 8 8 8 7 4 3 2 1 1 1

GEFSCGP_con_prob3kmehi_180.txt.gz
EHI
0 0 0 0 0 0 0 0 0 0 0 0 0 0 3 10 15 22 28 29 24 20 19 23 29 33 28 19 12 11 11 9 5 3 2 1 0 0 0 0 0 0 0 0
0 0 0 0 0 0 0 0 0 0 0 0 0 0 2 7 11 16 23 26 23 20 19 23 29 33 29 22 17 14 12 9 6 3 1 0 0 0 0 0 0 0 0 0
0 0 0 0 0 0 0 0 0 0 0 0 0 0 1 3 6 8 13 17 17 17 17 22 29 33 31 29 24 19 14 10 7 5 3 2 1 0 0 0 0 0 0 0
0 0 0 0 0 0 0 0 0 0 0 0 0 0 0 1 2 3 4 8 11 12 15 20 29 33 33 33 30 22 16 13 10 7 6 5 3 1 0 0 0 0 0 0
0 0 0 0 0 0 0 0 0 0 0 0 0 0 0 0 0 0 1 4 7 9 14 20 26 30 32 33 30 23 17 16 13 9 7 6 4 2 1 0 0 0 0 0
0 0 0 0 0 0 0 0 0 0 0 0 0 0 0 0 0 0 1 3 5 8 14 20 23 26 29 31 28 22 18 17 14 10 7 5 4 3 1 1 0 0 0 0
0 0 0 0 0 0 0 0 0 0 0 0 0 0 0 0 0 0 0 3 6 9 13 18 21 24 28 28 25 21 19 18 15 10 7 5 4 4 3 2 1 0 0 0
0 0 0 0 0 0 0 0 0 0 0 0 0 0 0 0 0 0 2 4 7 9 11 14 18 22 25 25 23 20 18 17 15 11 7 5 4 5 5 4 2 1 1 0
0 0 0 0 0 0 0 0 0 0 0 0 0 0 0 0 0 1 3 4 5 7 9 11 14 17 20 21 20 19 17 15 14 11 7 5 5 6 6 4 3 2 1 1
0 0 0 0 0 0 0 0 0 0 0 0 0 0 0 0 0 1 2 3 2 3 5 7 10 12 14 17 19 18 15 12 11 9 7 6 6 6 6 5 3 2 1 1
0 0 0 0 0 0 0 0 0 0 0 0 0 0 0 0 0 0 1 1 1 1 2 4 6 9 12 15 18 18 15 12 9 8 7 7 6 6 5 5 4 2 1 1
0 0 0 0 0 0 0 0 0 0 0 0 0 0 0 0 0 0 0 0 1 1 1 1 3 7 11 14 16 18 16 14 11 9 8 6 6 6 5 4 3 3 1 1
0 0 0 0 0 0 0 0 0 0 0 0 0 0 0 0 0 0 0 1 2 2 1 1 2 6 9 11 13 16 16 14 12 10 7 6 6 6 6 4 3 3 2 2
0 0 0 0 0 0 0 0 0 0 0 0 0 0 0 0 0 0 0 2 2 1 1 2 3 6 8 9 9 12 13 12 10 9 7 6 6 6 6 5 4 3 3 2
0 0 0 0 0 0 0 0 0 0 0 0 0 0 0 0 0 0 0 1 1 1 1 2 3 5 8 9 9 10 10 9 8 7 6 5 5 6 5 4 3 3 2 1
0 0 0 0 0 0 0 0 1 1 1 0 0 0 0 0 0 0 0 0 0 0 1 2 2 4 7 9 10 10 9 7 6 5 4 4 4 4 4 4 3 3 2 1
0 0 0 0 0 0 0 0 1 2 1 0 0 0 0 0 0 0 0 0 0 0 0 1 1 2 4 7 10 11 8 6 4 4 3 3 3 3 4 4 4 3 2 1
0 0 0 0 0 0 0 0 0 1 1 0 0 0 0 0 0 0 0 0 0 0 0 0 0 1 1 4 8 9 7 4 3 3 3 3 3 4 4 4 3 3 2 1
0 0 0 0 0 0 0 0 0 0 0 0 0 0 0 0 0 0 0 0 0 0 0 0 0 0 0 2 5 7 6 4 3 3 3 3 4 4 4 3 2 1 1 0
0 0 0 0 0 0 0 0 0 0 0 0 0 0 0 0 0 0 0 0 0 0 0 1 1 0 1 1 3 5 5 4 3 3 3 3 4 4 3 1 1 0 0 0
0 0 0 0 0 0 0 0 0 0 0 0 0 0 0 0 0 0 0 0 0 0 0 1 1 1 2 3 4 5 4 3 3 3 3 3 2 2 1 0 0 0 0 0
0 0 0 0 0 0 0 0 0 0 0 0 1 1 0 0 0 0 0 0 0 0 0 1 1 2 2 2 3 4 4 3 3 3 2 1 1 0 0 0 0 0 0 0
0 0 0 0 0 0 0 0 0 0 0 0 1 1 0 0 0 0 0 0 0 0 0 0 0 1 1 1 1 2 3 3 3 1 1 0 0 0 0 0 0 0 0 0
0 0 0 0 0 0 0 0 0 0 0 0 1 1 0 0 0 0 0 0 0 0 0 0 0 0 0 0 1 1 2 3 2 1 0 0 0 0 0 0 0 0 0 0
0 0 0 0 0 0 0 0 0 0 0 0 0 0 0 0 0 0 0 0 0 0 0 0 0 0 1 1 1 1 1 2 1 0 0 0 0 0 0 0 0 0 0 0
0 0 0 0 0 0 0 0 0 0 0 0 1 1 1 0 0 0 0 0 0 0 0 0 0 1 2 2 1 1 1 1 0 0 0 0 0 0 0 0 0 0 0 0

GEFSCGP_con_prob3kmehi_186.txt.gz
EHI
0 0 0 0 0 0 0 0 0 0 0 0 0 1 3 6 6 5 10 21 28 27 26 29 32 30 26 27 29 30 26 22 20 20 18 15 11 9 6 3 1 0 0 0
0 0 0 0 0 0 0 0 0 0 0 0 0 0 2 5 6 4 7 16 21 22 25 31 34 31 28 29 31 31 30 26 22 19 17 16 14 10 7 5 2 0 0 0
0 0 0 0 0 0 0 0 0 0 0 0 0 0 1 3 4 3 3 8 12 16 25 33 36 33 31 33 35 34 34 32 26 21 17 17 16 11 7 6 4 2 2 2
0 0 0 0 0 0 0 0 0 0 0 0 0 0 0 1 2 2 2 4 8 12 21 30 33 34 34 36 38 38 38 36 32 26 21 18 15 9 6 7 7 6 5 5
0 0 0 0 0 0 0 0 0 0 0 0 0 0 0 0 1 2 3 4 6 9 16 22 26 29 31 33 36 39 39 38 36 31 27 21 14 8 6 7 8 8 7 7
0 0 0 0 0 0 0 0 0 0 0 0 0 0 0 1 1 3 5 4 4 7 12 17 20 25 29 31 34 37 38 37 36 33 30 24 16 11 8 8 9 7 6 7
0 0 0 0 0 0 0 0 0 0 0 0 0 0 1 1 2 2 4 4 4 6 11 16 19 24 29 33 35 35 35 34 33 33 31 26 20 15 11 10 10 9 9 9
0 0 0 0 0 0 0 0 0 0 0 0 0 1 1 1 1 1 3 5 7 9 12 16 18 22 28 33 33 33 32 31 31 32 32 29 23 17 13 12 11 12 11 10
0 0 0 0 0 0 0 0 0 0 0 0 0 1 1 1 0 1 3 6 11 14 15 15 15 18 25 31 32 31 31 32 31 30 30 29 25 20 18 15 12 11 10 9
0 0 0 0 0 0 0 0 0 0 0 0 0 0 1 1 0 0 2 7 13 17 17 15 13 16 23 28 31 31 31 33 31 27 26 27 27 25 23 19 16 13 11 10
0 0 0 0 0 0 0 0 0 0 0 0 0 0 1 1 1 0 1 6 12 16 17 15 12 15 20 25 28 29 29 30 28 24 23 25 27 27 25 22 18 16 15 13
0 0 0 0 0 0 0 0 0 0 0 0 0 1 2 2 1 0 1 5 11 14 14 13 11 12 17 22 26 25 24 24 24 23 23 25 27 27 24 20 18 17 15 13
0 0 0 0 0 0 0 0 0 0 0 0 0 1 2 3 2 1 1 6 12 15 14 13 12 12 16 22 24 22 19 18 20 23 25 26 26 25 22 18 17 18 15 12
0 0 0 0 0 0 0 0 0 0 0 0 0 1 2 3 3 2 3 8 13 15 15 15 15 16 20 24 24 22 19 19 22 25 27 26 24 22 21 20 19 18 15 12
0 0 0 0 0 0 0 0 0 0 0 0 1 2 3 5 5 4 4 8 13 15 16 16 17 21 25 26 24 24 25 26 27 29 29 29 26 22 21 21 20 18 15 12
0 0 0 0 0 0 0 0 0 0 0 1 1 3 5 6 6 6 7 9 12 14 16 15 16 21 27 28 27 27 31 33 32 31 30 30 28 24 21 20 18 16 14 13
1 0 0 0 0 0 0 0 0 1 1 2 3 5 6 8 10 11 12 12 13 14 15 15 17 22 28 30 29 28 31 33 33 30 27 27 26 23 20 17 14 14 14 15
1 1 0 0 0 0 0 0 0 1 2 3 5 7 9 11 13 15 16 16 16 16 16 17 20 24 26 28 27 25 27 28 27 24 23 22 20 17 15 13 12 13 15 14
1 1 1 0 0 0 0 0 0 1 2 2 5 8 11 12 12 14 16 17 16 16 15 15 18 21 24 25 24 22 21 20 20 19 19 18 15 11 9 9 11 13 13 13
1 1 1 0 0 0 0 0 0 1 1 1 3 7 10 11 10 10 12 13 13 11 10 10 13 17 19 21 20 17 14 14 14 15 15 13 11 8 6 7 10 11 11 11
0 0 0 0 0 0 1 1 1 2 2 2 4 7 12 12 10 8 8 10 10 9 8 8 10 12 14 15 13 10 8 8 11 13 12 10 8 6 5 6 9 10 10 11
2 1 1 0 0 1 2 3 5 6 7 9 10 11 13 13 10 8 7 8 9 9 8 7 7 8 9 9 7 6 6 7 12 14 12 10 8 6 6 8 9 10 11 11
3 3 2 2 2 2 3 5 8 10 13 16 16 14 11 9 9 8 8 8 9 9 8 6 5 5 6 7 7 8 8 11 15 17 15 12 9 8 9 10 10 9 9 9
3 4 4 3 2 2 3 4 6 9 13 15 13 9 6 6 7 8 10 11 11 10 8 7 5 5 6 7 8 9 10 14 17 20 19 14 10 10 11 10 8 7 5 5
3 4 5 3 1 1 2 2 2 4 8 9 7 4 3 4 6 7 9 11 13 12 9 8 8 7 6 7 8 7 9 13 17 19 19 14 10 10 10 8 5 3 2 2
3 5 5 3 1 0 1 1 1 1 4 5 4 2 1 3 6 6 7 9 13 14 11 9 8 7 6 8 8 7 9 12 15 17 16 13 11 10 8 6 4 2 1 1

GEFSCGP_con_prob3kmehi_192.txt.gz
EHI
0 0 0 0 0 0 0 0 0 0 0 0 1 2 4 7 9 13 24 39 52 61 68 72 72 70 73 78 79 79 79 77 73 66 61 58 58 54 47 44 42 32 20 16
0 0 0 0 0 0 0 0 0 0 0 0 0 1 3 5 8 12 23 37 50 62 70 75 76 75 76 80 82 80 79 77 72 67 63 60 58 54 49 48 46 35 24 20
0 0 0 0 0 0 0 0 0 0 0 0 0 1 3 4 6 12 20 33 46 60 72 80 81 80 81 82 83 81 79 76 72 68 62 58 57 52 50 53 48 37 28 24
0 0 0 0 0 0 0 0 0 0 0 0 0 1 3 5 7 11 18 27 40 54 70 82 84 82 81 81 80 80 80 76 70 65 59 54 51 47 48 50 45 35 26 21
0 0 0 0 0 0 0 0 0 0 0 0 0 0 2 4 7 10 15 22 32 46 64 78 83 81 79 78 77 78 79 75 66 59 56 52 46 43 45 46 42 32 22 17
0 0 0 0 0 0 0 0 0 0 0 0 0 0 1 3 5 7 11 16 25 39 55 70 78 80 78 76 74 75 77 74 64 57 54 51 46 45 46 46 41 31 20 15
0 0 0 0 0 0 0 0 0 0 0 0 0 1 3 3 3 4 8 13 20 32 46 61 72 79 80 78 75 74 74 71 64 57 54 52 48 48 47 43 37 28 18 14
0 0 0 0 0 0 0 0 0 0 0 0 1 2 4 4 3 3 7 12 17 26 40 54 67 76 79 79 76 73 71 69 64 58 56 55 52 48 45 41 36 28 19 15
0 0 0 0 0 0 0 0 0 0 0 0 1 2 4 5 4 3 6 10 14 22 35 49 60 68 73 74 72 69 68 67 64 60 56 54 53 50 46 42 38 32 25 20
0 0 0 0 0 0 0 0 0 0 0 0 0 2 6 8 6 3 5 8 13 21 32 43 51 58 63 65 66 65 65 64 62 59 54 52 54 53 48 43 40 37 33 31
0 0 0 0 0 0 0 0 0 0 0 0 1 2 6 8 6 4 7 11 14 22 32 39 43 47 52 57 59 61 62 60 58 55 52 51 53 52 47 42 41 42 43 42
0 0 0 0 0 0 0 0 0 0 0 0 1 3 5 5 5 7 12 18 23 29 38 42 42 43 46 50 56 58 58 56 54 52 50 48 48 49 47 43 42 44 46 45
0 0 0 0 0 0 0 0 0 0 0 0 1 3 6 6 7 11 17 24 29 35 42 46 47 47 47 50 55 56 56 54 51 49 46 43 44 48 49 44 41 41 41 40
0 0 0 0 0 0 0 0 0 0 0 0 1 5 8 8 9 13 19 23 27 33 39 45 51 53 52 53 54 54 52 51 50 47 44 41 43 48 49 45 40 37 35 34
0 0 0 0 0 0 0 0 0 0 0 0 3 7 10 10 12 16 19 21 25 30 35 43 50 54 53 53 53 51 49 50 50 48 47 44 43 46 47 43 38 34 32 30
0 0 0 0 0 0 0 0 0 0 0 1 5 9 10 12 17 19 19 21 25 29 34 41 48 52 51 49 50 49 49 51 52 51 49 46 43 43 43 39 35 32 30 29
2 2 1 0 0 0 0 0 0 2 3 5 9 12 13 17 21 22 21 22 24 25 31 39 47 52 50 47 48 49 49 48 50 49 45 43 42 40 36 33 33 34 32 31
2 3 2 0 0 0 1 1 3 6 10 13 15 18 20 23 24 24 24 26 25 26 31 39 45 48 47 44 44 45 43 41 41 41 39 38 38 35 31 30 33 35 34 33
1 2 1 0 0 0 2 4 6 11 14 15 19 23 23 23 23 24 27 29 29 29 33 37 39 41 44 44 42 39 36 33 32 32 33 34 34 32 30 30 32 34 33 30
1 1 0 0 0 1 3 6 8 11 13 15 20 24 23 20 22 24 26 28 30 31 31 31 32 38 45 48 43 34 30 30 28 28 28 30 32 32 33 33 33 31 29 26
0 0 0 0 0 2 7 11 14 16 19 21 23 25 24 24 26 26 25 27 29 29 27 27 32 40 46 48 43 35 32 31 28 25 26 30 32 32 34 37 35 28 23 21
3 3 2 1 2 7 14 19 22 27 30 28 27 27 27 27 27 27 27 27 28 28 27 29 35 40 40 39 38 35 34 33 29 27 28 30 31 31 33 36 34 25 19 17
7 8 6 4 7 14 22 26 27 29 30 29 30 30 28 24 22 25 28 28 26 26 27 29 31 32 30 29 30 31 31 30 30 31 32 31 30 30 31 30 27 20 14 12
7 8 8 7 9 14 21 24 24 22 23 26 30 30 25 20 20 24 26 26 24 24 24 23 24 24 23 23 23 25 26 25 26 30 31 29 26 26 25 23 19 13 10 8
7 7 7 8 8 9 13 16 16 17 19 22 24 23 21 20 20 22 22 21 21 21 20 19 19 20 22 22 21 23 26 25 23 25 25 23 20 19 19 17 12 8 6 5
9 7 7 7 7 7 8 11 13 16 18 20 19 18 19 20 20 19 19 18 18 18 18 17 17 19 21 22 21 23 27 26 23 23 22 18 16 16 16 14 9 5 3 3

GEFSCGP_con_prob3kmehi_198.txt.gz
EHI
0 0 0 0 0 0 0 0 0 0 0 0 4 10 16 24 34 43 52 57 58 58 61 66 71 69 65 66 66 60 53 46 41 36 32 26 18 10 7 6 6 5 7 9
0 0 0 0 0 0 0 0 0 0 1 1 5 10 15 21 30 39 48 56 60 63 65 68 72 72 69 69 68 64 58 51 42 33 27 23 16 11 10 10 8 7 8 10
0 0 0 0 0 0 0 0 0 0 1 2 4 6 10 15 21 30 41 51 58 64 68 71 74 74 73 72 71 68 62 54 44 32 25 23 19 14 14 13 11 8 8 9
0 0 0 0 0 0 0 0 0 0 1 1 1 2 4 10 15 22 33 45 52 59 67 73 75 76 75 73 71 67 62 55 47 37 30 27 22 16 13 12 10 8 7 7
0 0 0 0 0 0 0 0 0 0 0 0 0 0 1 6 12 17 26 39 48 54 63 71 76 77 75 73 71 67 61 55 49 42 34 28 22 16 11 10 10 8 7 6
0 0 0 0 0 0 0 0 0 0 0 0 0 0 0 3 8 13 20 33 44 52 59 65 73 76 74 73 74 70 63 57 51 44 35 26 20 15 12 12 11 9 7 7
0 0 0 0 0 0 0 0 0 0 0 0 0 0 0 2 6 11 17 28 41 52 57 62 70 73 72 72 73 70 64 58 53 47 38 28 19 15 13 13 13 12 10 9
0 0 0 0 0 0 0 0 0 0 0 0 0 0 1 3 7 12 19 28 40 51 59 64 66 66 67 68 68 66 62 58 55 50 43 32 21 15 13 12 13 14 13 12
0 0 0 0 0 0 0 0 0 0 0 0 0 0 2 4 7 13 21 29 37 47 58 64 62 59 61 63 62 61 59 57 55 52 46 37 26 19 15 13 14 14 14 13
0 0 0 0 0 0 0 0 0 0 0 0 0 0 2 5 7 11 18 24 30 40 50 56 56 54 55 57 58 58 57 55 52 51 46 37 29 24 20 16 14 14 13 13
0 0 0 0 0 0 0 0 0 0 0 0 0 0 1 5 7 9 14 19 24 32 42 48 50 50 49 50 52 55 55 52 49 48 44 37 31 26 21 18 15 13 13 12
0 0 0 0 0 0 0 0 0 0 0 0 0 0 1 3 5 8 13 17 23 30 38 43 47 48 46 45 47 50 50 47 44 43 41 37 31 27 23 18 15 12 12 12
0 0 0 0 0 0 0 0 0 0 0 0 0 0 0 1 4 9 14 18 25 32 36 40 43 43 42 43 45 46 44 41 40 39 38 36 31 27 23 19 15 12 11 10
0 0 0 0 0 0 0 0 0 0 0 0 0 0 0 1 3 9 15 20 27 33 35 35 36 37 38 40 43 43 41 39 38 36 34 30 27 23 20 17 15 12 8 8
0 0 0 0 0 0 0 0 0 0 0 0 1 1 1 1 3 9 16 23 30 35 35 34 33 34 35 36 38 38 37 35 34 31 27 23 20 17 14 13 13 12 9 7
0 0 0 0 0 0 0 0 0 0 0 1 3 3 2 4 6 11 18 25 32 35 36 35 35 33 32 31 30 29 28 26 25 24 20 17 15 13 11 10 10 11 10 9
0 0 0 0 0 0 0 0 0 0 0 2 4 4 3 6 11 14 18 25 30 32 33 34 34 32 27 25 23 22 21 20 19 18 16 14 13 12 11 9 9 10 11 12
0 0 0 0 0 0 0 0 0 0 1 2 5 7 8 13 18 18 18 21 25 25 24 26 29 29 25 20 18 18 18 17 15 14 14 14 14 13 12 10 9 10 11 12
0 0 0 0 0 0 0 0 0 0 2 4 8 11 15 21 26 23 19 18 19 19 16 18 23 26 23 18 16 16 15 13 12 11 12 14 15 15 14 13 13 14 13 13
0 0 0 0 0 0 0 1 0 0 2 5 10 15 18 23 26 23 18 15 14 14 14 15 20 23 20 15 15 15 13 11 11 10 9 10 13 14 14 15 17 16 14 11
0 0 0 0 0 0 1 2 1 0 2 6 12 16 17 19 20 18 13 10 10 13 16 17 20 20 16 15 15 14 12 10 9 7 5 6 9 12 12 13 14 14 11 8
0 0 0 0 0 1 2 2 1 1 3 7 12 14 14 15 16 14 12 11 13 16 18 19 19 17 14 14 14 12 10 8 6 4 4 4 6 8 8 8 9 9 8 7
0 0 0 1 2 3 3 2 2 3 5 7 10 10 11 14 15 15 15 16 17 18 18 18 17 13 11 11 11 10 8 6 5 4 3 3 4 5 5 5 6 6 6 7
0 0 1 2 4 5 5 4 3 4 6 7 8 9 12 16 18 17 17 17 17 16 15 14 12 10 9 8 8 8 8 7 6 5 4 4 3 3 2 3 3 3 3 4
0 0 1 3 4 6 6 4 4 5 7 8 8 10 15 18 18 16 14 14 14 13 12 11 9 8 7 7 8 8 8 8 7 6 5 4 3 1 1 1 1 1 1 1
0 1 2 3 4 6 6 4 4 6 8 9 9 12 17 19 16 13 11 11 12 13 12 11 9 7 7 8 9 8 7 7 7 6 5 4 3 1 0 0 0 0 0 0

GEFSCGP_con_prob3kmehi_204.txt.gz
EHI
0 0 0 0 0 0 0 0 0 0 0 0 0 1 6 12 17 23 25 26 26 25 20 18 21 24 23 19 18 16 14 12 11 9 6 5 3 1 1 1 2 3 3 3
0 0 0 0 0 0 0 0 0 1 1 0 0 1 4 10 15 19 21 21 23 23 22 24 29 34 32 27 24 22 19 16 15 12 8 5 3 2 2 2 3 3 3 3
0 0 0 0 0 0 0 0 0 1 1 0 0 1 3 6 9 12 13 13 17 23 29 35 42 47 45 37 33 31 27 23 19 16 11 7 5 4 4 4 3 3 3 3
0 0 0 0 0 0 0 0 0 1 1 0 0 0 1 3 5 7 9 10 14 23 32 42 49 54 54 47 41 39 35 29 23 19 17 14 9 6 5 5 4 3 3 3
0 0 0 0 0 0 0 0 0 0 0 0 0 0 0 1 3 6 9 11 14 20 29 41 49 53 54 52 47 42 38 33 27 24 23 20 15 9 6 5 5 4 3 3
0 0 0 0 0 0 0 0 0 0 0 0 0 0 0 0 1 4 7 10 15 19 27 37 44 48 50 51 48 45 40 34 29 26 26 24 20 14 7 5 5 5 4 3
0 0 0 0 0 0 0 0 0 0 0 0 0 0 0 0 0 1 3 9 15 22 28 33 39 43 46 48 50 49 43 36 30 28 28 26 22 16 10 5 4 4 3 3
0 0 0 0 0 0 0 0 0 0 0 0 0 0 0 1 1 1 2 6 15 24 28 30 34 38 41 44 48 50 44 37 32 31 30 28 24 18 12 7 5 4 4 4
0 0 0 0 0 0 0 0 0 0 0 1 1 1 1 2 2 2 3 6 13 22 27 28 28 32 36 38 41 44 42 38 35 32 30 28 25 20 15 10 7 6 6 6
0 0 0 0 0 0 0 0 0 0 0 1 2 1 1 1 1 2 3 5 10 17 23 25 24 26 29 30 32 35 38 39 38 33 30 27 24 21 16 12 8 7 6 6
0 0 0 0 0 0 0 0 0 0 0 0 1 1 0 0 0 1 3 4 8 13 18 20 20 20 22 24 26 29 32 36 38 35 29 25 21 18 15 13 10 7 7 6
0 0 0 0 0 0 0 0 0 0 0 0 0 0 0 1 1 2 4 6 9 12 15 16 17 17 17 19 23 25 27 31 34 31 25 20 17 15 13 12 10 7 6 6
0 0 0 0 0 0 0 0 0 0 0 0 0 0 0 1 2 4 7 9 10 13 15 16 16 16 16 17 20 22 24 26 28 25 20 17 16 15 13 10 8 6 5 4
0 0 0 0 1 1 1 1 0 0 0 0 0 0 0 1 3 5 7 9 10 13 15 16 16 16 16 17 20 21 21 22 22 21 17 15 14 14 13 10 7 5 4 4
0 0 0 1 2 2 2 2 1 0 0 0 0 0 0 1 3 5 6 8 10 11 13 15 16 16 16 19 21 20 18 17 18 18 17 14 12 11 10 9 6 5 6 6
0 0 0 1 1 2 2 2 1 0 0 0 0 0 0 2 4 6 7 8 8 8 10 12 13 13 16 20 21 19 14 12 13 15 15 13 11 9 7 6 5 5 6 6
0 0 0 0 0 1 1 1 1 1 0 0 0 0 1 4 6 7 6 6 5 5 7 10 11 13 16 18 18 15 11 10 11 11 11 10 9 8 7 5 4 5 6 6
0 0 0 0 0 0 0 0 0 1 0 0 0 1 2 5 7 7 5 3 3 3 6 9 13 16 16 15 14 11 9 9 9 8 8 7 6 5 5 3 3 5 6 5
0 0 0 0 0 0 0 0 0 0 0 0 1 2 4 5 7 7 5 3 3 4 6 9 14 16 15 14 13 10 7 6 6 6 6 5 3 2 2 2 2 4 5 4
0 0 0 0 0 0 0 0 0 0 0 0 1 2 4 5 5 6 6 4 4 5 6 8 11 14 14 13 12 9 6 4 3 4 4 3 1 1 1 2 2 2 2 3
0 0 0 0 0 0 0 0 0 0 0 0 0 1 2 4 4 5 6 5 4 5 5 7 9 11 12 12 10 8 5 3 3 3 3 3 2 2 3 2 1 0 1 2
0 0 0 0 0 0 0 0 0 0 0 0 0 1 2 4 5 5 5 5 5 5 5 8 10 10 10 9 9 7 4 1 1 3 3 3 3 3 3 3 1 1 2 2
0 0 0 0 0 0 0 0 0 0 0 0 1 3 5 5 5 4 5 5 6 6 7 10 12 11 9 7 6 4 2 0 1 3 3 3 3 3 3 3 3 3 3 3
0 0 0 0 0 0 0 0 0 0 0 2 3 5 7 7 6 6 5 5 5 5 6 9 11 10 7 5 3 2 2 2 3 3 3 3 3 3 3 3 3 3 3 3
0 0 0 0 0 0 0 0 0 0 1 3 5 6 8 8 9 8 6 5 5 4 3 5 8 8 6 4 3 3 3 5 5 4 3 3 3 3 3 2 2 2 2 2
0 0 0 0 0 0 0 0 0 0 1 3 4 5 7 9 9 8 6 5 4 2 1 3 6 7 5 4 3 4 5 6 6 5 4 3 3 3 2 1 1 1 1 1